Location: Catstown
(52.4386°N, 7.2633°W)
Time: 11:08:51
(UTC+00:00)

Cosmos 1833 Rocket - Pass Details

Date: 24 January 2021
Orbit: 833 x 839 km, 71.0° (Epoch: 24 February)

Event Time Altitude Azimuth Distance (km) Brightness Sun altitude
Rises 20:05:41 0° 326° (NW) 3,393 6.4 -27.7°
Reaches altitude 10° 20:08:13 10° 320° (NW) 2,456 5.6 -28.1°
Maximum altitude 20:13:32 45° 249° (WSW) 1,131 3.6 -28.9°
Enters shadow 20:16:32 24° 191° (S) 1,670 4.2 -29.4°
